Location: Chacón
(10.5789°N, 66.9317°W)
Time: 20:10:32
(UTC+00:00)

Sakura Rocket - Pass Details

Date: 10 August 2024
Orbit: 475 x 1710 km, 28.7° (Epoch: 09 September)

Event Time Altitude Azimuth Distance (km) Brightness Sun altitude
Exits shadow 06:23:38 11° 34° (NE) 2,804 6.8 -52.3°
Drops below altitude 10° 06:24:07 10° 38° (NE) 2,909 6.9 -52.2°
Sets 06:28:59 0° 61° (ENE) 4,189 7.9 -51.3°
